Regional Weather Roundup
Issued by NWS Northern Indiana

Home | Current Version | Previous Version | Text Only | Print | Product List | Glossary On
Versions: 1 2 3 4 5 6 7 8 9 10 11 12 13 14 15 16 17 18 19 20 21 22 23 24 25 26 27 28 29 30 31 32 33 34 35 36 37 38 39 40 41 42 43 44 45 46 47 48 49 50
000
ASUS43 KIWX 261610
RWRIWX

KIWX WEATHER ROUNDUP
NATIONAL WEATHER SERVICE NORTHERN INDIANA
1100 AM EST MON JAN 26 2015

NOTE: "FAIR" INDICATES FEW OR NO CLOUDS BELOW 12,000 FEET WITH NO
SIGNIFICANT WEATHER AND/OR OBSTRUCTIONS TO VISIBILITY.

* THESE STATIONS ARE NOT UNDER NWS QUALITY CONTROL. THEY ALSO MAY NOT
  REPORT WEATHER SUCH AS PRECIPITATION OR FOG.

INZ001>027-261700-
NORTHERN INDIANA

CITY           SKY/WX    TMP DP  RH WIND       PRES   REMARKS
GARY*          MOSUNNY   23   9  54 SW5       29.99R WCI  17
VALPARAISO     SUNNY     17  11  77 S5        29.97R WCI  10
MICHIGAN CITY* SUNNY     21   9  58 CALM      29.98R
LAPORTE*       SUNNY     20  13  74 CALM      29.97R
KNOX*          SUNNY     17   2  52 CALM      29.96S
SOUTH BEND     MOSUNNY   18  10  71 CALM      29.97R
ELKHART*       SUNNY     18   7  62 CALM      29.97R
GOSHEN         MOSUNNY   16  10  77 E6        29.95R WCI   7
MONTICELLO*    SUNNY     18  11  75 CALM      29.96F
LOGANSPORT*    MOSUNNY   18  10  73 CALM      29.98R
ROCHESTER*     PTSUNNY   21  14  73 CALM      29.97R
WARSAW*        PTSUNNY   18  10  73 CALM      29.95
ANGOLA*        SUNNY     14   7  73 CALM      29.92S
FORT WAYNE     PTSUNNY   17   8  67 CALM      29.95S
HUNTINGTON*    MOSUNNY   14   4  65 CALM      29.95S
PERU/GRISSOM   PTSUNNY   16   9  74 MISG      29.96R
MARION*        PTSUNNY   17   9  72 CALM      29.96R

$$
INZ028>050-261700-
CENTRAL INDIANA

CITY           SKY/WX    TMP DP  RH WIND       PRES   REMARKS
LAFAYETTE      MOSUNNY   21  13  71 W3        29.98S
KOKOMO*        PTSUNNY   16   9  73 CALM      29.96R
MUNCIE*        MOSUNNY   18  10  71 NE3       29.94S
INDIANAPOLIS   PTSUNNY   24  18  77 W9        29.96R WCI  14

$$
MIZ043>046-050>051-056>058-064>065-071>073-077>080-261700-
SOUTHWEST LOWER MICHIGAN

CITY           SKY/WX    TMP DP  RH WIND       PRES   REMARKS
BATTLE CREEK   FAIR      17   7  64 E5        29.95R WCI  10
BENTON HARBOR  MOSUNNY   16  11  80 E7        29.97R WCI   6
COLDWATER*     MOSUNNY   16   8  72 CALM      29.93S
HILLSDALE*     SUNNY     17   9  72 CALM      29.90S
HOLLAND        MOSUNNY   17  10  74 E8        29.98S WCI   7
GRAND RAPIDS   PTSUNNY   16   9  74 E9        29.97R WCI   4
KALAMAZOO      MOSUNNY   17   9  70 CALM      29.95S
STURGIS*       MOSUNNY   16  10  79 CALM      29.93R
THREE RIVERS*  FAIR      16  10  77 E3        29.96R

$$
OHZ001>008-015>018-024>025-261700-
NORTHWEST OHIO

CITY           SKY/WX    TMP DP  RH WIND       PRES   REMARKS
WAUSEON*       FAIR      16   9  73 N7        29.94S WCI   6
DEFIANCE       SUNNY     17   7  64 NE5       29.96S WCI  10
FINDLAY        LGT SNOW  17  10  74 N9        29.92R WCI   6
TOLEDO EXPRESS SUNNY     17   8  67 N3        29.94S
TOLEDO METCALF MOSUNNY   18   8  65 N9        29.96R WCI   7
LIMA           LGT SNOW  15   8  73 N8        29.92R WCI   4

$$
AND FOR LAKE MICHIGAN COASTAL AND OPEN LAKE BUOY OBSERVATIONS

STATION/POSITION TEMP    WIND        PRES    VSBY  WAVE
                 AIR SEA DIR/SP/G                  HT/PER
                 (F)     (DEG/KT/KT) (MB)    (MI)  (FT/S)
CALUMET HARBOR    22     210/  4/  7   N/A
MICHIGAN CITY     18     160/  4/  5   N/A
SAINT JOSEPH      20      CALM  /  3 1015.2F
SAINT JOSEPH CG                      1014.8      6   0

$$
&&


USA.gov is the U.S. government's official web portal to all federal, state and local government web resources and services.